Location: Unspecified
(58.9933°N, 5.6375°E)
Time: 22:38:58
(UTC+02:00)

Cosmos 1674 - Visible Passes

Search period start: 01 October 2016 00:00
Search period end: 11 October 2016 00:00
Orbit: 501 x 524 km, 82.5° (Epoch: 30 September)

Date Brightness Start Highest point End Pass type
(mag) Time Alt. Az. Time Alt. Az. Time Alt. Az.
01 Oct 2.7 20:03:47 10° N 20:07:41 65° ENE 20:11:33 10° SSE visible
01 Oct 5.5 21:40:08 10° NW 21:42:57 19° W 21:45:45 10° SW visible
02 Oct 2.8 19:47:46 10° N 19:51:38 55° ENE 19:55:28 10° SSE visible
02 Oct 5.3 21:23:56 10° NW 21:27:00 22° W 21:30:03 10° SW visible
03 Oct 5.1 21:07:47 10° NNW 21:11:02 26° W 21:14:17 10° SW visible
04 Oct 4.8 20:51:39 10° NNW 20:55:04 30° W 20:58:29 10° SSW visible
05 Oct 4.5 20:35:31 10° NNW 20:39:05 35° W 20:42:38 10° SSW visible
06 Oct 4.2 20:19:24 10° NNW 20:23:05 41° W 20:26:45 10° SSW visible
07 Oct 3.9 20:03:18 10° NNW 20:07:05 48° W 20:10:50 10° S visible
08 Oct 3.5 19:47:12 10° NNW 19:51:04 57° W 19:54:53 10° S visible
09 Oct 3.2 19:31:09 10° NNW 19:35:02 68° W 19:38:53 10° S visible
09 Oct 6.4 21:08:46 10° WNW 21:09:55 11° W 21:11:03 10° W visible
10 Oct 6.2 20:52:09 10° NW 20:53:59 13° W 20:55:47 10° WSW visible
